Regional Weather Roundup
Issued by NWS

Home | Current Version | Previous Version | Graphics & Text | Print | Product List | Glossary On
Versions: 1 2 3 4 5 6 7 8 9 10 11 12 13 14 15 16 17 18 19 20 21 22 23 24 25 26 27 28 29 30 31 32 33 34 35 36 37 38 39 40 41 42 43 44 45 46 47 48 49 50
000
ASUS43 KBIS 290110
RWRND

NORTH DAKOTA REGIONAL WEATHER ROUNDUP
NATIONAL WEATHER SERVICE BISMARCK ND
800 PM CDT TUE JUL 28 2015

NOTE: "FAIR" INDICATES FEW OR NO CLOUDS BELOW 12,000 FEET WITH NO
SIGNIFICANT WEATHER AND/OR OBSTRUCTIONS TO VISIBILITY.


NDZ001>003-009>011-017-290200-
NORTHWEST NORTH DAKOTA

CITY           SKY/WX    TMP DP  RH WIND       PRES   REMARKS
WILLISTON      LGT RAIN  56  51  84 W37G49    29.80R
MINOT          LGT RAIN  58  52  80 SW35G51   29.49R
MINOT AFB      LGT RAIN  59  57  94 W29G39    29.46R FOG
$$

NDZ018>021-031>035-040>046-290200-
SOUTHWEST NORTH DAKOTA

CITY           SKY/WX    TMP DP  RH WIND       PRES   REMARKS
BISMARCK       MOSUNNY   68  45  43 W29G51    29.83R
DICKINSON      MOSUNNY   68  42  38 W32G46    29.87R
GARRISON         N/A     61  49  64 W38G62    29.68R
HETTINGER ARPT SUNNY     68  40  35 W29G40    29.97S
$$

NDZ004>008-012>016-024-026-027-054-290200-
NORTHEAST NORTH DAKOTA

CITY           SKY/WX    TMP DP  RH WIND       PRES   REMARKS
GRAND FORKS    MOCLDY    72  50  45 SW29G44   29.61F
GRND FRKS AFB  CLOUDY    71  52  50 SW26G36   29.61F
DEVILS LAKE    CLOUDY    66  50  55 SW40G48   29.54F
$$

NDZ022-023-025-028>030-036>039-047>053-290200-
SOUTHEAST NORTH DAKOTA

CITY           SKY/WX    TMP DP  RH WIND       PRES   REMARKS
FARGO          PTCLDY    75  50  41 SW29G44   29.74R
JAMESTOWN      CLOUDY    69  47  45 W23G41    29.75R
$$



USA.gov is the U.S. government's official web portal to all federal, state and local government web resources and services.